Change the Weather History Date:

Monday, October 22, 2012

  Actual Average Record
Temperature  
Mean Temperature 60 °F -  
Max Temperature 70 °F 60 °F 79 °F (2007)
Min Temperature 50 °F 42 °F 36 °F (1997)
Degree Days  
Heating Degree Days 6    
Growing Degree Days 10 (Base 50)    
Moisture  
Dew Point 40 °F    
Average Humidity 52    
Maximum Humidity 67    
Minimum Humidity 33    
Precipitation  
Precipitation 0.00 in - - ()
Sea Level Pressure  
Sea Level Pressure 30.05 in    
Wind  
Wind Speed 8 mph (WNW)    
Max Wind Speed 14 mph    
Max Gust Speed 22 mph    
Visibility 10 miles    
Events      
Averages and records for this station are not official NWS values.
T = Trace of Precipitation, MM = Missing Value Source: NWS Daily Summary

Daily Weather History Graph

Daily Weather History Graph

Search for Another Location

Airport or City:

Trip Planner

Search our weather history database for the weather conditions in past years. The results will help you decide how hot, cold, wet, or windy it might be!

Date:

Astronomy

Oct. 22, 2012 Rise Set
Actual Time 7:15 AM EDT 6:04 PM EDT
Civil Twilight 6:47 AM EDT 6:32 PM EDT
Nautical Twilight 6:15 AM EDT 7:04 PM EDT
Astronomical Twilight 5:44 AM EDT 7:36 PM EDT
Moon 2:13 PM EDT (10/22) No Moon Set
Length of Visible Light 11h 44m
Length of Day
10h 48m
First Quarter, 56% of the Moon is Illuminated
Oct 22
First Quarter
Oct 29
Full
Nov 6
Last Quarter
Nov 13
New
Nov 20
First Quarter

Hourly Weather History & Observations

Time (EDT) Temp. Dew Point Humidity Pressure Visibility Wind Dir Wind Speed Gust Speed Precip Events Conditions
12:51 AM 55.4 °F 39.2 °F 54% 30.02 in 10.0 mi West 10.4 mph - N/A   Clear
1:51 AM 54.0 °F 39.0 °F 57% 30.03 in 10.0 mi West 9.2 mph - N/A   Clear
2:51 AM 53.1 °F 39.0 °F 59% 30.03 in 10.0 mi West 9.2 mph - N/A   Clear
3:51 AM 51.1 °F 39.0 °F 63% 30.04 in 10.0 mi West 6.9 mph - N/A   Clear
4:51 AM 50.0 °F 39.0 °F 66% 30.04 in 10.0 mi West 5.8 mph - N/A   Clear
5:51 AM 50.0 °F 39.0 °F 66% 30.06 in 10.0 mi West 5.8 mph - N/A   Clear
6:51 AM 50.0 °F 39.0 °F 66% 30.07 in 10.0 mi WNW 4.6 mph - N/A   Clear
8:51 AM 52.0 °F 41.0 °F 66% 30.11 in 10.0 mi SSE 3.5 mph - N/A   Clear
9:51 AM 57.0 °F 41.0 °F 55% 30.10 in 10.0 mi NW 9.2 mph - N/A   Clear
10:51 AM 60.8 °F 42.8 °F 52% 30.09 in 10.0 mi NW 9.2 mph 19.6 mph N/A   Clear
11:51 AM 63.0 °F 39.9 °F 43% 30.07 in 10.0 mi WNW 11.5 mph 19.6 mph N/A   Clear
12:51 PM 64.9 °F 39.0 °F 39% 30.05 in 10.0 mi NW 11.5 mph - N/A   Clear
1:51 PM 66.9 °F 39.0 °F 36% 30.03 in 10.0 mi NW 13.8 mph 21.9 mph N/A   Clear
2:51 PM 69.1 °F 39.0 °F 33% 30.01 in 10.0 mi WNW 9.2 mph 17.3 mph N/A   Clear
3:51 PM 69.1 °F 39.0 °F 33% 30.01 in 10.0 mi WNW 12.7 mph 21.9 mph N/A   Clear
4:51 PM 69.1 °F 39.0 °F 33% 30.00 in 10.0 mi West 9.2 mph - N/A   Clear
5:51 PM 66.2 °F 39.2 °F 37% 30.01 in 10.0 mi WNW 6.9 mph - N/A   Clear
6:51 PM 64.9 °F 39.9 °F 40% 30.03 in 10.0 mi Variable 3.5 mph - N/A   Clear
7:51 PM 60.1 °F 41.0 °F 49% 30.04 in 10.0 mi SW 3.5 mph - N/A   Clear
8:51 PM 60.1 °F 42.1 °F 51% 30.06 in 10.0 mi Calm Calm - N/A   Clear
9:51 PM 55.0 °F 42.1 °F 62% 30.06 in 10.0 mi Calm Calm - N/A   Clear
10:51 PM 53.6 °F 42.8 °F 67% 30.07 in 10.0 mi Calm Calm - N/A   Clear
11:51 PM 54.0 °F 43.0 °F 66% 30.06 in 10.0 mi Calm Calm - N/A   Clear